SCP
0 0 0 0 0 0 0 0 0 0 0 0 0 0 0 0 0 0 -0 -0 0 1 1 1 1 0 0 0 0 0 0 0 0 0 0 0 0 0 0 -0 -0 -0 -0 -0
0 0 0 0 -0 0 0 0 0 0 0 0 0 0 0 0 -0 -0 -0 0 0 1 1 1 1 0 0 0 0 0 0 0 0 0 0 0 0 0 -0 -0 -0 -0 -0 -0
0 0 0 0 0 0 0 0 0 0 0 0 0 0 1 0 -0 -0 -0 0 0 0 0 0 0 0 0 0 0 1 0 0 0 0 0 0 -0 -0 -0 -0 -0 -0 -0 0
0 0 0 0 -0 0 0 0 0 0 0 0 0 0 1 1 1 1 0 0 0 0 0 0 0 0 0 0 0 0 1 0 0 0 0 -0 -0 -0 -0 0 0 0 0 0
0 0 0 0 0 0 0 1 0 0 0 0 0 1 1 1 0 0 0 0 0 0 0 0 0 0 0 0 0 0 0 0 0 0 0 0 0 0 0 0 0 0 0 0
0 0 0 0 0 0 0 1 0 0 0 0 1 1 1 0 0 0 0 0 0 0 0 0 0 0 0 0 0 0 0 0 0 0 -0 0 0 0 0 0 0 0 0 0
0 0 0 0 0 0 0 0 0 0 0 1 1 1 0 0 0 0 0 0 0 0 0 0 0 0 0 0 0 0 0 0 0 -0 0 0 0 0 0 0 0 0 0 0
0 0 0 0 0 1 1 2 1 1 1 0 0 0 0 0 0 0 0 0 0 0 0 0 0 0 0 0 0 0 0 0 0 0 0 0 0 0 0 0 0 0 0 0
0 1 1 1 3 2 1 1 1 1 0 0 0 0 0 0 0 0 0 0 0 0 0 0 0 0 0 0 0 0 0 0 0 0 0 0 0 0 0 0 0 0 0 0
0 0 0 0 0 1 1 1 0 0 0 0 0 0 0 0 0 0 0 0 0 0 0 0 0 0 0 0 0 0 0 0 0 0 0 0 0 0 0 0 0 0 0 0
0 0 0 0 0 0 0 0 0 0 0 0 0 0 0 0 0 0 0 0 0 0 0 0 0 0 0 0 0 0 0 0 0 0 0 0 0 0 0 0 0 0 0 0
0 1 0 0 0 0 0 0 0 0 0 0 0 0 0 0 0 0 0 0 0 0 0 0 0 0 0 0 0 0 0 0 0 0 0 0 0 0 0 0 0 0 0 0
0 0 0 0 0 0 0 0 0 0 0 0 0 0 0 0 0 0 0 0 0 0 0 0 0 0 0 0 0 0 0 0 0 0 0 0 0 0 0 0 0 0 0 0
0 0 0 -0 0 -0 0 0 0 0 0 0 0 0 0 0 0 0 0 0 0 0 0 -0 -0 -0 -0 -0 0 0 0 0 -0 -0 -0 -0 -0 -0 -0 -0 -0 0 0 0
-0 -0 0 0 0 0 0 0 0 0 0 0 0 0 0 0 0 0 0 0 0 0 -0 0 0 0 -0 -0 -0 -0 -0 -0 -0 -0 -0 -0 -0 -0 -0 -0 -0 -0 -0 -0
0 0 0 0 0 1 0 0 0 0 0 0 0 0 0 0 0 0 0 0 0 0 0 0 -0 -0 -0 -0 -0 -0 -0 -0 0 -0 -0 -0 -0 -0 0 0 0 -0 -0 -0
0 0 0 0 0 0 0 0 0 0 0 0 0 0 0 0 0 0 0 0 0 -0 -0 0 -0 -0 -0 -0 -0 -0 0 0 -0 -0 0 0 0 0 0 0 0 -0 0 0
0 0 0 0 0 0 0 0 0 0 0 0 0 0 0 0 0 0 0 0 0 -0 0 0 0 0 0 0 -0 0 0 0 0 0 0 0 0 0 0 0 0 0 0 -0
0 0 0 0 0 0 0 0 0 0 0 0 0 0 0 0 0 0 0 0 0 0 0 0 0 0 0 0 0 0 0 0 0 0 0 0 0 0 0 0 0 0 0 0
0 0 0 0 0 0 0 0 0 0 0 0 0 0 0 0 0 0 0 0 0 0 0 0 0 0 0 0 0 0 0 0 0 0 0 0 0 0 0 0 0 0 0 0
0 -0 0 0 0 0 0 0 0 0 0 0 0 0 0 0 0 0 0 0 0 -0 0 0 0 0 0 0 0 0 0 0 0 0 0 0 0 0 0 0 0 0 0 0
-0 0 0 0 0 0 0 0 0 0 0 0 0 0 0 0 0 0 0 0 -0 0 -0 0 0 0 0 0 0 0 0 0 0 0 0 0 0 0 0 0 0 0 0 0
0 0 0 0 0 0 0 0 0 0 0 0 0 0 0 0 0 0 0 0 0 0 0 0 0 0 0 0 0 0 0 0 0 0 0 0 0 0 0 0 0 0 0 0
0 0 0 0 0 0 0 0 0 0 0 0 0 0 0 0 0 0 0 0 0 0 0 0 0 0 0 0 0 0 0 0 0 0 0 0 0 0 0 0 0 0 0 0
0 0 0 0 0 0 0 0 0 0 0 0 0 0 0 0 0 0 0 -0 0 0 0 0 0 0 0 0 0 0 0 0 0 0 0 0 0 0 0 0 0 0 0 0
0 0 0 0 0 0 0 0 0 0 0 0 0 0 0 0 0 -0 -0 0 0 0 0 0 0 0 0 0 0 0 0 0 0 0 0 0 0 0 0 0 0 0 0 0
0 0 0 0 0 0 0 0 0 -0 -0 -0 0 0 0 0 0 0 0 0 0 0 0 0 0 0 0 0 0 0 0 0 0 0 0 0 0 0 0 0 0 0 0 0
Wind_Speed_500mb
16 14 27 22 20 15 15 17 13 15 29 25 25 28 27 53 55 74 58 50 38 39 37 20 14 11 7 3 20 15 10 3 7 1 8 1 6 11 11 14 19 22 21 22
13 22 29 12 42 20 22 25 16 14 5 14 38 71 60 83 91 58 51 40 30 23 18 23 21 15 13 14 15 15 11 10 11 5 14 6 16 19 19 18 18 14 12 9
11 17 24 16 7 12 8 4 6 11 15 15 10 17 52 50 48 45 34 27 22 17 21 23 29 32 25 27 24 20 19 16 16 18 17 14 23 24 19 20 19 16 14 12
6 12 15 13 4 14 3 12 17 22 30 21 20 29 36 48 42 48 33 23 19 17 15 18 20 22 25 25 19 13 20 20 27 22 33 29 26 23 22 19 17 17 15 9
5 9 14 17 4 9 12 16 20 33 26 22 32 55 45 43 52 45 33 25 17 15 17 21 20 17 15 18 21 28 23 24 35 38 43 38 32 29 26 17 12 10 10 11
3 1 7 12 7 6 7 8 2 32 13 27 28 10 4 37 36 33 26 19 17 19 16 10 9 12 13 10 5 9 25 30 43 46 46 39 33 33 28 17 7 2 9 15
9 8 10 14 7 14 13 9 21 34 39 39 9 24 49 33 24 17 16 17 16 8 5 8 11 10 8 9 2 5 13 26 44 52 48 40 37 32 21 13 3 3 11 18
4 10 16 35 13 4 19 32 49 48 54 58 62 66 50 42 30 20 16 16 14 7 1 5 9 10 9 8 9 11 27 41 48 44 36 43 34 24 15 8 6 12 15 18
4 2 12 32 33 29 41 53 42 57 58 56 61 54 50 44 34 25 24 21 15 10 13 17 14 13 12 20 16 20 34 42 40 45 48 44 34 22 20 15 13 19 18 19
5 10 12 27 34 37 25 41 43 42 46 52 59 53 48 38 28 25 23 20 18 20 20 21 22 24 26 29 26 26 29 34 38 44 42 38 34 34 30 28 27 27 28 29
3 11 10 23 34 30 29 24 41 40 44 47 48 40 35 31 27 25 21 21 23 24 25 26 30 34 32 32 32 35 40 40 41 42 41 41 42 39 33 35 27 25 25 23
6 20 4 5 17 22 45 38 30 39 43 44 40 40 36 33 31 28 28 30 29 26 30 31 32 37 38 37 36 41 45 44 44 42 41 40 40 47 45 39 33 29 27 22
7 10 13 13 11 16 23 17 18 27 30 36 32 33 33 38 33 32 36 32 31 35 35 33 36 44 46 47 48 49 52 51 50 47 47 46 46 47 50 43 34 30 27 26
12 13 16 9 14 29 34 28 25 23 27 29 31 26 32 36 34 31 35 38 41 41 43 38 37 39 37 34 38 48 48 47 47 50 46 43 42 40 38 40 41 42 35 31
7 11 24 22 29 29 32 34 37 33 31 29 21 27 29 37 38 44 48 45 45 47 42 37 37 39 41 46 47 44 41 33 25 27 33 28 27 26 28 22 27 32 35 38
25 15 22 25 24 35 33 36 33 30 27 24 25 27 32 39 43 46 48 48 45 41 42 48 46 46 43 40 43 31 36 24 26 29 22 18 20 18 9 7 19 20 20 23
18 24 18 19 40 39 31 27 28 31 24 22 33 31 33 47 49 55 50 39 35 43 38 38 35 30 25 24 28 25 22 18 22 18 22 16 11 9 8 12 14 10 4 2
31 25 40 35 49 41 41 31 31 22 33 32 34 36 35 43 51 56 53 54 45 36 25 21 22 22 21 14 24 8 10 14 25 26 15 6 9 12 7 11 7 2 7 19
30 27 17 37 39 34 42 45 34 29 32 38 46 38 33 53 59 58 52 33 27 42 33 30 25 20 20 27 20 18 3 8 25 22 17 7 3 5 12 18 12 3 9 18
34 27 23 30 42 50 40 34 30 36 35 47 48 48 58 63 59 44 42 47 36 35 26 27 23 17 8 9 17 9 6 13 14 19 16 15 14 7 16 11 17 11 12 13
47 47 54 43 40 32 32 43 41 37 38 47 57 52 54 62 52 42 37 38 33 29 14 17 18 15 18 14 8 13 6 5 11 11 16 15 12 11 17 20 22 19 14 14
46 42 43 40 35 33 37 44 44 39 39 47 49 55 65 51 49 40 34 28 23 28 25 17 16 10 13 11 16 12 7 15 10 3 8 21 22 15 20 27 13 8 19 18
40 46 40 32 33 52 52 53 46 34 40 56 63 72 56 50 40 36 31 35 33 27 23 23 15 6 6 10 14 13 8 15 13 19 18 11 10 16 20 19 17 19 19 21
35 35 29 32 35 41 45 42 36 40 59 63 68 56 50 42 37 30 11 16 21 20 19 16 12 12 17 18 18 15 12 22 22 19 23 12 15 17 25 26 27 26 28 24
32 36 38 40 44 41 37 43 47 54 58 60 51 42 41 43 22 11 9 10 14 14 22 16 14 20 27 25 15 11 9 18 16 17 21 18 13 29 27 19 26 28 24 23
45 48 43 36 38 48 57 58 54 46 44 40 35 40 24 17 11 4 6 13 20 21 24 16 13 21 27 9 10 14 18 20 22 24 25 34 28 19 24 28 22 30 31 32
44 40 42 47 47 42 44 45 41 44 44 45 33 17 13 9 9 10 12 8 5 3 3 10 12 22 28 18 21 18 17 21 26 29 28 25 28 30 35 31 35 34 30 32
Wind_Direction_500mb
304 287 278 289 234 268 263 229 170 212 176 174 170 148 145 143 174 221 162 162 170 167 159 163 181 222 253 217 183 211 234 278 160 78 93 66 55 74 95 72 96 102 98 100
304 306 303 344 293 239 245 222 227 113 93 181 162 136 149 143 156 213 166 151 158 176 166 146 148 152 172 187 213 255 250 250 218 162 136 134 93 102 112 104 121 134 127 111
268 296 308 302 253 356 307 344 166 162 185 197 100 126 134 143 144 166 150 152 136 132 143 158 180 193 189 194 197 204 236 227 225 166 134 123 140 135 128 124 132 129 126 122
261 311 276 250 350 299 348 357 85 95 144 170 114 85 125 130 142 128 125 140 162 155 176 209 219 225 230 236 235 199 181 199 194 168 151 166 164 157 149 136 129 138 146 159
140 248 281 297 104 25 356 21 122 146 154 120 99 84 70 115 126 130 144 156 171 206 235 247 256 266 268 250 243 225 200 199 185 175 178 181 179 171 167 173 156 133 147 157
127 265 276 264 179 128 322 39 223 140 128 137 143 96 72 113 126 138 148 170 215 245 253 268 297 311 315 312 254 218 207 190 188 188 192 191 189 182 180 190 196 127 170 169
198 219 282 293 204 191 156 184 153 151 155 155 113 142 136 135 134 152 174 209 211 224 266 325 334 338 0 46 29 197 192 192 191 191 193 200 186 174 181 193 187 168 164 165
222 195 256 357 358 99 128 97 126 140 145 126 128 137 142 148 154 177 195 177 178 197 190 39 46 58 94 91 96 156 176 176 177 181 187 176 175 168 165 187 199 163 155 158
75 113 354 22 58 66 124 121 128 143 144 146 145 143 150 151 169 186 175 172 158 135 106 98 91 94 113 106 112 144 152 147 155 162 163 154 151 161 163 134 132 131 126 126
342 26 48 15 38 33 97 121 128 132 140 141 139 149 146 155 162 167 165 159 137 121 113 104 105 104 101 109 119 134 139 133 128 129 131 129 127 121 117 115 120 118 118 118
321 28 79 25 37 41 49 89 114 128 140 146 155 154 162 156 166 167 157 146 133 123 117 118 114 107 103 110 116 117 116 114 115 115 117 118 117 112 113 111 107 109 113 115
33 346 93 24 49 78 61 62 102 126 134 148 167 161 156 160 168 163 155 150 142 129 124 119 116 112 113 114 117 116 113 112 110 109 108 108 111 109 101 94 94 95 99 101
97 31 94 125 152 128 119 134 120 121 132 141 157 154 161 157 160 157 149 151 145 136 129 130 123 114 108 111 110 107 105 104 99 96 96 97 97 94 88 85 83 87 92 98
155 133 115 135 147 142 160 161 159 144 148 152 150 153 155 151 150 152 151 146 138 132 126 122 124 121 120 119 111 105 101 98 97 92 91 90 88 80 71 74 81 82 91 101
222 208 175 165 149 151 152 150 143 146 156 154 161 151 152 150 148 144 141 137 133 127 125 125 122 122 119 113 102 99 98 92 90 94 91 90 93 82 69 71 87 89 90 95
209 230 211 214 188 165 167 147 152 156 160 156 161 150 148 149 146 139 138 137 136 134 129 121 116 114 113 112 100 99 115 109 118 112 108 102 105 89 66 93 119 109 105 115
215 219 198 176 176 165 160 160 168 154 163 180 170 163 152 156 153 144 142 146 137 124 120 118 110 107 111 120 117 128 151 128 124 123 141 149 175 183 160 97 136 93 27 166
241 256 225 200 184 183 169 179 196 177 167 176 173 169 162 171 161 148 143 137 137 143 137 123 122 132 128 141 148 145 159 148 145 162 194 224 219 206 194 189 192 167 64 140
249 257 200 193 186 186 174 184 187 168 176 182 181 184 181 165 153 148 146 148 146 146 153 158 153 138 149 144 146 167 153 177 184 207 227 252 231 189 158 156 203 158 127 123
225 235 260 177 179 182 174 183 168 165 181 187 180 170 168 163 157 155 149 145 151 155 161 173 186 194 186 185 190 183 181 287 229 237 212 197 210 208 145 153 168 180 188 157
204 210 240 175 176 183 185 169 170 169 175 185 181 180 171 161 161 163 168 161 163 177 177 178 191 202 203 188 209 216 355 85 227 226 231 205 227 218 197 189 195 200 204 227
222 189 175 176 171 156 157 161 170 174 173 182 179 165 160 162 164 164 171 166 171 162 151 165 166 175 182 231 246 258 248 327 247 218 291 245 241 219 221 198 205 228 214 231
147 163 175 179 173 156 160 165 174 182 173 167 161 160 166 171 171 149 144 156 155 169 183 185 193 214 274 284 266 243 301 290 257 233 245 279 223 207 213 226 227 225 237 241
153 166 156 144 148 156 154 160 175 174 166 161 160 168 165 146 138 152 128 151 177 186 199 214 232 261 286 286 287 238 258 276 273 270 239 271 236 233 240 240 247 252 248 249
124 125 133 143 150 150 155 158 151 151 153 149 149 138 140 139 148 150 147 194 213 232 241 240 281 296 294 284 257 242 272 260 266 250 260 262 250 246 246 279 257 250 253 249
133 136 137 138 142 148 145 146 143 142 153 150 131 138 150 122 124 182 192 254 263 241 235 248 292 327 338 260 218 293 265 274 274 275 271 265 263 259 248 257 267 264 261 256
125 122 118 122 128 136 140 131 131 142 142 145 157 161 162 190 239 267 283 264 206 132 189 293 291 315 312 308 279 289 284 274 271 270 267 268 265 266 257 261 260 261 263 266
Wind_Speed_850mb
16 14 27 22 20 15 15 17 13 15 29 25 25 28 27 53 55 74 58 50 38 39 37 20 14 11 7 3 20 15 10 3 7 1 8 1 6 11 11 14 19 22 21 22
13 22 29 12 42 20 22 25 16 14 5 14 38 71 60 83 91 58 51 40 30 23 18 23 21 15 13 14 15 15 11 10 11 5 14 6 16 19 19 18 18 14 12 9
11 17 24 16 7 12 8 4 6 11 15 15 10 17 52 50 48 45 34 27 22 17 21 23 29 32 25 27 24 20 19 16 16 18 17 14 23 24 19 20 19 16 14 12
6 12 15 13 4 14 3 12 17 22 30 21 20 29 36 48 42 48 33 23 19 17 15 18 20 22 25 25 19 13 20 20 27 22 33 29 26 23 22 19 17 17 15 9
5 9 14 17 4 9 12 16 20 33 26 22 32 55 45 43 52 45 33 25 17 15 17 21 20 17 15 18 21 28 23 24 35 38 43 38 32 29 26 17 12 10 10 11
3 1 7 12 7 6 7 8 2 32 13 27 28 10 4 37 36 33 26 19 17 19 16 10 9 12 13 10 5 9 25 30 43 46 46 39 33 33 28 17 7 2 9 15
9 8 10 14 7 14 13 9 21 34 39 39 9 24 49 33 24 17 16 17 16 8 5 8 11 10 8 9 2 5 13 26 44 52 48 40 37 32 21 13 3 3 11 18
4 10 16 35 13 4 19 32 49 48 54 58 62 66 50 42 30 20 16 16 14 7 1 5 9 10 9 8 9 11 27 41 48 44 36 43 34 24 15 8 6 12 15 18
4 2 12 32 33 29 41 53 42 57 58 56 61 54 50 44 34 25 24 21 15 10 13 17 14 13 12 20 16 20 34 42 40 45 48 44 34 22 20 15 13 19 18 19
5 10 12 27 34 37 25 41 43 42 46 52 59 53 48 38 28 25 23 20 18 20 20 21 22 24 26 29 26 26 29 34 38 44 42 38 34 34 30 28 27 27 28 29
3 11 10 23 34 30 29 24 41 40 44 47 48 40 35 31 27 25 21 21 23 24 25 26 30 34 32 32 32 35 40 40 41 42 41 41 42 39 33 35 27 25 25 23
6 20 4 5 17 22 45 38 30 39 43 44 40 40 36 33 31 28 28 30 29 26 30 31 32 37 38 37 36 41 45 44 44 42 41 40 40 47 45 39 33 29 27 22
7 10 13 13 11 16 23 17 18 27 30 36 32 33 33 38 33 32 36 32 31 35 35 33 36 44 46 47 48 49 52 51 50 47 47 46 46 47 50 43 34 30 27 26
12 13 16 9 14 29 34 28 25 23 27 29 31 26 32 36 34 31 35 38 41 41 43 38 37 39 37 34 38 48 48 47 47 50 46 43 42 40 38 40 41 42 35 31
7 11 24 22 29 29 32 34 37 33 31 29 21 27 29 37 38 44 48 45 45 47 42 37 37 39 41 46 47 44 41 33 25 27 33 28 27 26 28 22 27 32 35 38
25 15 22 25 24 35 33 36 33 30 27 24 25 27 32 39 43 46 48 48 45 41 42 48 46 46 43 40 43 31 36 24 26 29 22 18 20 18 9 7 19 20 20 23
18 24 18 19 40 39 31 27 28 31 24 22 33 31 33 47 49 55 50 39 35 43 38 38 35 30 25 24 28 25 22 18 22 18 22 16 11 9 8 12 14 10 4 2
31 25 40 35 49 41 41 31 31 22 33 32 34 36 35 43 51 56 53 54 45 36 25 21 22 22 21 14 24 8 10 14 25 26 15 6 9 12 7 11 7 2 7 19
30 27 17 37 39 34 42 45 34 29 32 38 46 38 33 53 59 58 52 33 27 42 33 30 25 20 20 27 20 18 3 8 25 22 17 7 3 5 12 18 12 3 9 18
34 27 23 30 42 50 40 34 30 36 35 47 48 48 58 63 59 44 42 47 36 35 26 27 23 17 8 9 17 9 6 13 14 19 16 15 14 7 16 11 17 11 12 13
47 47 54 43 40 32 32 43 41 37 38 47 57 52 54 62 52 42 37 38 33 29 14 17 18 15 18 14 8 13 6 5 11 11 16 15 12 11 17 20 22 19 14 14
46 42 43 40 35 33 37 44 44 39 39 47 49 55 65 51 49 40 34 28 23 28 25 17 16 10 13 11 16 12 7 15 10 3 8 21 22 15 20 27 13 8 19 18
40 46 40 32 33 52 52 53 46 34 40 56 63 72 56 50 40 36 31 35 33 27 23 23 15 6 6 10 14 13 8 15 13 19 18 11 10 16 20 19 17 19 19 21
35 35 29 32 35 41 45 42 36 40 59 63 68 56 50 42 37 30 11 16 21 20 19 16 12 12 17 18 18 15 12 22 22 19 23 12 15 17 25 26 27 26 28 24
32 36 38 40 44 41 37 43 47 54 58 60 51 42 41 43 22 11 9 10 14 14 22 16 14 20 27 25 15 11 9 18 16 17 21 18 13 29 27 19 26 28 24 23
45 48 43 36 38 48 57 58 54 46 44 40 35 40 24 17 11 4 6 13 20 21 24 16 13 21 27 9 10 14 18 20 22 24 25 34 28 19 24 28 22 30 31 32
44 40 42 47 47 42 44 45 41 44 44 45 33 17 13 9 9 10 12 8 5 3 3 10 12 22 28 18 21 18 17 21 26 29 28 25 28 30 35 31 35 34 30 32
Wind_Direction_850mb
304 287 278 289 234 268 263 229 170 212 176 174 170 148 145 143 174 221 162 162 170 167 159 163 181 222 253 217 183 211 234 278 160 78 93 66 55 74 95 72 96 102 98 100
304 306 303 344 293 239 245 222 227 113 93 181 162 136 149 143 156 213 166 151 158 176 166 146 148 152 172 187 213 255 250 250 218 162 136 134 93 102 112 104 121 134 127 111
268 296 308 302 253 356 307 344 166 162 185 197 100 126 134 143 144 166 150 152 136 132 143 158 180 193 189 194 197 204 236 227 225 166 134 123 140 135 128 124 132 129 126 122
261 311 276 250 350 299 348 357 85 95 144 170 114 85 125 130 142 128 125 140 162 155 176 209 219 225 230 236 235 199 181 199 194 168 151 166 164 157 149 136 129 138 146 159
140 248 281 297 104 25 356 21 122 146 154 120 99 84 70 115 126 130 144 156 171 206 235 247 256 266 268 250 243 225 200 199 185 175 178 181 179 171 167 173 156 133 147 157
127 265 276 264 179 128 322 39 223 140 128 137 143 96 72 113 126 138 148 170 215 245 253 268 297 311 315 312 254 218 207 190 188 188 192 191 189 182 180 190 196 127 170 169
198 219 282 293 204 191 156 184 153 151 155 155 113 142 136 135 134 152 174 209 211 224 266 325 334 338 0 46 29 197 192 192 191 191 193 200 186 174 181 193 187 168 164 165
222 195 256 357 358 99 128 97 126 140 145 126 128 137 142 148 154 177 195 177 178 197 190 39 46 58 94 91 96 156 176 176 177 181 187 176 175 168 165 187 199 163 155 158
75 113 354 22 58 66 124 121 128 143 144 146 145 143 150 151 169 186 175 172 158 135 106 98 91 94 113 106 112 144 152 147 155 162 163 154 151 161 163 134 132 131 126 126
342 26 48 15 38 33 97 121 128 132 140 141 139 149 146 155 162 167 165 159 137 121 113 104 105 104 101 109 119 134 139 133 128 129 131 129 127 121 117 115 120 118 118 118
321 28 79 25 37 41 49 89 114 128 140 146 155 154 162 156 166 167 157 146 133 123 117 118 114 107 103 110 116 117 116 114 115 115 117 118 117 112 113 111 107 109 113 115
33 346 93 24 49 78 61 62 102 126 134 148 167 161 156 160 168 163 155 150 142 129 124 119 116 112 113 114 117 116 113 112 110 109 108 108 111 109 101 94 94 95 99 101
97 31 94 125 152 128 119 134 120 121 132 141 157 154 161 157 160 157 149 151 145 136 129 130 123 114 108 111 110 107 105 104 99 96 96 97 97 94 88 85 83 87 92 98
155 133 115 135 147 142 160 161 159 144 148 152 150 153 155 151 150 152 151 146 138 132 126 122 124 121 120 119 111 105 101 98 97 92 91 90 88 80 71 74 81 82 91 101
222 208 175 165 149 151 152 150 143 146 156 154 161 151 152 150 148 144 141 137 133 127 125 125 122 122 119 113 102 99 98 92 90 94 91 90 93 82 69 71 87 89 90 95
209 230 211 214 188 165 167 147 152 156 160 156 161 150 148 149 146 139 138 137 136 134 129 121 116 114 113 112 100 99 115 109 118 112 108 102 105 89 66 93 119 109 105 115
215 219 198 176 176 165 160 160 168 154 163 180 170 163 152 156 153 144 142 146 137 124 120 118 110 107 111 120 117 128 151 128 124 123 141 149 175 183 160 97 136 93 27 166
241 256 225 200 184 183 169 179 196 177 167 176 173 169 162 171 161 148 143 137 137 143 137 123 122 132 128 141 148 145 159 148 145 162 194 224 219 206 194 189 192 167 64 140
249 257 200 193 186 186 174 184 187 168 176 182 181 184 181 165 153 148 146 148 146 146 153 158 153 138 149 144 146 167 153 177 184 207 227 252 231 189 158 156 203 158 127 123
225 235 260 177 179 182 174 183 168 165 181 187 180 170 168 163 157 155 149 145 151 155 161 173 186 194 186 185 190 183 181 287 229 237 212 197 210 208 145 153 168 180 188 157
204 210 240 175 176 183 185 169 170 169 175 185 181 180 171 161 161 163 168 161 163 177 177 178 191 202 203 188 209 216 355 85 227 226 231 205 227 218 197 189 195 200 204 227
222 189 175 176 171 156 157 161 170 174 173 182 179 165 160 162 164 164 171 166 171 162 151 165 166 175 182 231 246 258 248 327 247 218 291 245 241 219 221 198 205 228 214 231
147 163 175 179 173 156 160 165 174 182 173 167 161 160 166 171 171 149 144 156 155 169 183 185 193 214 274 284 266 243 301 290 257 233 245 279 223 207 213 226 227 225 237 241
153 166 156 144 148 156 154 160 175 174 166 161 160 168 165 146 138 152 128 151 177 186 199 214 232 261 286 286 287 238 258 276 273 270 239 271 236 233 240 240 247 252 248 249
124 125 133 143 150 150 155 158 151 151 153 149 149 138 140 139 148 150 147 194 213 232 241 240 281 296 294 284 257 242 272 260 266 250 260 262 250 246 246 279 257 250 253 249
133 136 137 138 142 148 145 146 143 142 153 150 131 138 150 122 124 182 192 254 263 241 235 248 292 327 338 260 218 293 265 274 274 275 271 265 263 259 248 257 267 264 261 256
125 122 118 122 128 136 140 131 131 142 142 145 157 161 162 190 239 267 283 264 206 132 189 293 291 315 312 308 279 289 284 274 271 270 267 268 265 266 257 261 260 261 263 266